Home > Weather > Drummondville > Past weeks

Flag for Canada Past Weather in Drummondville, Quebec, Canada — Yesterday and Last 2 Weeks

Now
78 °F

Warm.


Feels Like: 80 °F
Forecast: 69 / 81 °F
Wind: 9 mph from Southwest

Location: Nicolet

Current Time: Aug 25, 2016 at 2:46:21 PM

Latest Report: Aug 25, 2016 at 2:00 PM


Visibility: N/A

Pressure: 29.84 "Hg

Humidity: 78%

Dew Point: 70 °F

Location of DrummondvilleLocation

Past Weather in Drummondville — Graph

°F

Drummondville Temperature Yesterday

Maximum temperature yesterday: 80 °F (at 4:00 PM)
Minimum temperature yesterday: 64 °F (at 5:00 AM)
Average temperature yesterday: 72 °F

High & Low Weather Summary for the Past Weeks

 TemperatureHumidityPressure
High87 °F (Aug 10, 5:00 PM)100% (Aug 14, 8:00 AM)30.17 "Hg (Aug 14, 8:00 AM)
Low53 °F (Aug 19, 6:00 AM)41% (Aug 11, 4:00 PM)29.67 "Hg (Aug 21, 3:00 PM)
Average69 °F78%29.94 "Hg
* Reported Aug 10 1:00 PM — Aug 25 1:00 PM, Drummondville, Weather by CustomWeather, © 2016

Note: Actual official high and low records may vary slightly from our data, if they occured in-between our weather recording intervals... More about our weather records

Advertising

Drummondville Weather History for the Previous 24 Hours

Scroll right to see more
 ConditionsComfort  
Time TempWeatherWind HumidityBarometerVisibility
1:00 PM
Thu, Aug 25
77 °FWarm.9 mph75%29.84 "HgN/A
12:00 PM76 °FMild.9 mph79%29.86 "HgN/A
11:00 AM71 °FMild.9 mph88%29.86 "HgN/A
10:00 AM72 °FMild.9 mph79%29.87 "HgN/A
9:00 AM72 °FMild.7 mph77%29.87 "HgN/A
8:00 AM69 °FMild.7 mph84%29.88 "HgN/A
7:00 AM70 °FMild.7 mph77%29.88 "HgN/A
6:00 AM70 °FMild.7 mph76%29.89 "HgN/A
5:00 AM71 °FMild.8 mph75%29.89 "HgN/A
4:00 AM71 °FMild.8 mph75%29.90 "HgN/A
3:00 AM71 °FMild.5 mph78%29.92 "HgN/A
2:00 AM70 °FMild.6 mph79%29.93 "HgN/A
1:00 AM71 °FMild.6 mph80%29.95 "HgN/A
12:00 AM72 °FMild.7 mph77%29.96 "HgN/A
10:00 PM
Wed, Aug 24
71 °FMild.3 mph76%29.98 "HgN/A
9:00 PM72 °FMild.3 mph76%30.00 "HgN/A
8:00 PM71 °FMild.2 mph82%30.00 "HgN/A
7:00 PM75 °FMild.5 mph68%30.01 "HgN/A
6:00 PM79 °FWarm.7 mph58%30.02 "HgN/A
5:00 PM79 °FWarm.9 mph57%30.03 "HgN/A
4:00 PM80 °FWarm.9 mph64%30.04 "HgN/A
3:00 PM80 °FWarm.13 mph57%30.05 "HgN/A
2:00 PM80 °FWarm.13 mph62%30.07 "HgN/A
Weather by CustomWeather, © 2016

See weather overviewHow to use our weather pages